Temperature
18 17 17 17 16 16 16 16 16 16 16 15 15 15 15 15 15 15 15 15 15 14 14 14 14 14 14 14 14 14 14 14 13 13 13 13 13 13 13 13 13 13 13
18 17 17 17 17 16 16 16 16 16 16 15 15 15 15 15 15 15 15 14 14 14 14 14 14 14 14 14 14 14 13 13 13 13 13 14 13 12 12 13 13 13 12
18 18 17 17 17 16 16 16 16 16 16 16 15 15 15 15 15 15 14 14 14 14 14 14 14 14 14 14 14 14 14 13 13 13 13 14 14 13 12 12 12 12 12
18 18 17 17 17 16 16 16 16 16 16 16 15 15 15 15 15 15 14 14 14 14 14 14 14 14 14 14 13 13 13 13 13 13 13 13 13 13 13 12 12 12 12
18 18 17 17 17 17 16 16 16 16 16 16 16 15 15 15 15 15 14 14 14 14 14 14 14 14 14 14 14 13 13 13 13 13 13 13 13 13 13 13 12 12 12
18 18 17 17 17 17 16 16 16 16 16 16 16 15 15 15 15 14 14 14 14 14 14 14 14 14 14 14 14 13 13 13 13 13 13 13 13 13 13 13 12 12 11
18 17 17 17 17 16 16 16 16 16 16 16 16 15 15 15 15 14 14 14 14 14 14 14 14 14 13 13 13 13 13 13 13 13 13 13 13 13 12 13 12 12 11
17 17 17 17 17 16 16 16 16 16 16 16 15 15 15 15 15 15 14 14 14 14 14 14 14 14 13 13 13 13 13 13 13 13 13 13 13 12 12 12 12 12 12
17 17 17 17 16 16 16 16 16 16 16 15 15 15 15 15 15 15 14 14 14 14 14 14 14 14 13 13 13 13 13 13 13 13 13 13 13 12 12 12 12 12 13
17 17 17 16 16 16 16 16 16 16 16 15 15 15 15 15 15 14 14 14 14 14 14 14 14 13 13 13 13 13 13 13 13 13 13 13 12 12 12 12 12 12 12
17 17 16 16 16 16 16 16 16 15 15 15 15 15 15 15 14 14 14 14 14 14 14 14 14 13 13 13 13 13 13 13 13 13 13 12 12 12 12 12 12 12 12
17 16 16 16 16 16 16 15 15 15 15 15 15 15 14 14 14 14 14 14 14 14 14 14 14 13 13 13 13 13 13 13 13 13 12 12 12 12 12 12 12 12 11
16 16 16 16 16 16 15 15 15 15 15 15 15 14 14 14 14 14 14 14 14 14 14 14 13 13 13 13 13 13 13 13 13 12 12 12 12 12 12 12 12 11 11
16 16 15 15 15 15 15 15 15 15 15 15 14 14 14 14 14 14 14 14 14 13 13 13 13 13 13 13 13 13 13 12 12 12 12 12 12 12 12 12 11 11 11
16 16 15 15 15 15 15 15 15 15 15 14 14 14 14 14 14 13 13 13 13 13 13 13 13 13 13 13 13 12 12 12 12 12 12 12 12 12 12 11 11 11 11
16 16 15 15 15 15 15 15 14 14 14 14 14 14 14 14 14 13 13 13 13 13 13 13 13 13 13 13 13 12 12 12 12 12 12 12 12 12 12 12 11 11 11
16 15 15 15 15 15 14 14 14 14 14 14 14 14 14 13 13 13 13 13 13 13 13 13 13 12 13 13 12 12 12 12 12 11 11 11 11 11 11 11 11 11 11
15 15 15 15 15 14 14 14 14 14 14 14 13 13 13 13 13 13 13 13 13 13 13 13 12 12 12 12 12 12 12 11 11 11 11 11 11 11 11 11 11 10 11
15 14 14 14 14 14 14 14 13 13 13 13 13 13 13 13 13 13 13 13 12 12 12 12 12 12 12 12 12 12 11 11 11 11 11 11 11 11 11 10 10 10 10
14 14 14 14 14 14 13 13 13 13 13 13 13 13 13 13 13 13 12 12 12 12 12 12 12 12 11 12 12 12 11 11 11 11 11 11 11 10 10 10 10 10 10
13 13 13 13 13 13 13 13 13 13 13 13 12 12 12 12 12 12 12 12 12 12 12 11 11 11 11 11 11 11 11 11 11 11 11 11 11 10 10 10 10 10 10
13 13 13 13 13 13 13 13 12 13 12 12 12 12 12 12 12 12 12 12 11 11 11 11 11 11 11 11 11 11 11 11 10 10 10 10 11 10 10 10 10 10 9
12 12 12 12 12 12 12 12 12 12 12 12 12 12 12 12 12 11 11 11 11 11 11 11 10 11 10 10 11 11 11 11 10 10 10 10 10 10 10 10 10 9 9
12 12 12 12 12 12 12 11 12 12 11 12 12 11 11 11 11 11 11 11 10 10 10 10 10 10 10 10 10 10 10 10 10 10 10 10 10 10 10 9 9 9 9
11 11 11 11 11 11 11 11 11 11 11 11 11 11 11 11 10 10 10 10 10 10 10 10 10 10 10 10 10 10 10 10 10 10 10 9 9 9 9 9 9 9 9
11 11 11 10 10 10 11 10 10 10 10 10 10 10 10 10 10 10 10 10 10 10 10 10 10 10 10 10 10 10 10 10 9 9 9 9 9 9 9 9 9 8 8
Wind_Speed
7 6 6 6 5 5 5 5 5 5 4 3 3 2 2 2 2 2 2 2 2 3 3 2 3 3 2 2 3 4 4 4 4 4 4 4 5 6 5 5 5 6 7
8 7 7 7 6 6 6 6 5 5 5 3 2 2 2 1 1 1 2 2 2 2 2 3 2 3 3 3 3 3 2 2 1 0 1 2 3 4 4 4 4 5 5
9 9 8 7 7 7 6 6 6 6 5 4 3 3 2 2 2 2 1 1 1 2 2 2 2 2 3 3 3 3 2 2 1 1 2 1 1 2 3 4 4 4 4
9 9 8 8 8 8 7 7 6 6 6 6 5 5 4 3 2 2 2 2 2 2 2 2 2 3 2 3 3 3 2 2 1 1 1 2 1 1 1 2 3 4 4
10 10 9 9 8 7 7 7 7 7 7 7 6 5 4 3 2 3 3 3 3 3 3 3 3 3 3 3 3 3 2 2 2 1 1 0 0 1 1 0 1 2 2
10 9 9 8 7 7 6 6 7 7 7 7 7 6 5 4 4 4 3 3 3 3 3 3 3 3 3 3 3 3 3 3 2 2 2 1 1 1 1 1 1 1 2
9 9 9 9 8 7 6 6 7 7 7 7 7 7 6 6 6 5 4 4 3 3 4 4 3 3 3 3 3 3 3 3 3 3 2 2 2 1 1 1 1 1 0
8 8 9 8 8 7 6 6 7 7 7 7 7 7 6 5 4 5 5 4 3 3 3 4 3 3 3 3 3 3 2 2 3 3 3 2 2 2 2 2 2 1 1
7 8 7 7 7 7 7 7 7 7 7 7 7 6 6 5 5 5 5 3 3 3 4 4 4 4 4 4 3 2 2 2 2 2 3 2 2 2 2 2 3 2 2
6 6 6 6 6 6 6 6 6 6 6 6 5 4 5 5 5 5 5 4 4 4 4 5 4 4 5 4 4 3 2 3 2 2 3 2 2 2 2 2 2 3 2
5 6 5 5 5 5 5 5 6 6 5 5 5 5 4 4 4 5 5 4 4 5 5 5 5 5 5 5 4 4 4 4 3 3 3 3 2 2 3 3 2 2 1
3 4 4 4 5 5 5 5 5 5 4 4 4 5 4 4 4 4 4 4 5 5 5 5 6 6 5 5 5 5 5 4 4 4 3 3 3 3 3 3 3 3 2
3 3 4 4 4 5 5 5 5 4 4 4 4 4 4 4 4 4 3 4 4 5 5 5 6 6 6 6 6 5 5 5 5 4 4 4 4 4 4 4 3 2 2
3 3 3 4 4 4 4 5 5 4 4 4 4 4 4 4 4 4 3 4 4 5 6 6 6 6 6 6 6 6 5 5 5 4 4 4 4 4 4 4 4 3 3
3 3 4 4 4 4 5 5 5 5 5 5 5 4 4 3 4 4 4 4 4 4 5 5 6 5 5 5 5 5 5 5 5 5 5 4 2 1 2 3 4 4 4
4 4 4 4 4 5 5 5 6 6 6 6 5 4 4 3 3 4 4 3 3 4 5 5 5 6 5 3 4 5 5 5 5 5 4 4 4 4 4 3 3 3 5
4 4 4 4 5 5 5 6 6 6 6 6 5 5 5 4 4 4 4 3 4 4 4 5 5 5 5 5 6 6 5 5 5 5 5 4 4 5 5 6 7 6 5
4 4 4 4 4 4 5 5 6 6 7 6 6 5 5 5 4 4 4 4 4 4 4 5 5 4 4 5 6 6 7 6 5 5 5 5 5 5 4 5 6 6 6
4 4 4 4 4 4 5 5 6 7 7 7 7 6 6 6 5 5 5 5 5 4 4 4 5 5 5 6 7 7 5 5 6 5 5 5 5 5 5 6 6 6 5
4 3 3 4 4 4 4 5 6 7 8 7 7 7 7 7 7 6 5 5 5 5 4 4 5 5 6 6 7 8 5 6 5 5 5 5 5 6 8 7 7 7 6
4 3 4 4 4 4 5 6 6 7 7 6 6 6 7 7 7 6 5 5 5 4 5 5 5 5 5 6 7 8 6 6 6 5 5 5 7 8 9 8 7 6 5
4 3 3 3 3 4 5 5 6 6 5 5 6 6 6 6 6 6 6 6 5 5 5 5 5 4 5 4 5 8 8 6 6 6 5 4 7 8 9 8 6 5 5
4 4 3 4 3 4 4 6 5 5 5 5 6 6 6 6 6 6 6 6 5 5 5 5 5 4 4 4 5 6 8 7 6 5 3 3 6 7 7 8 8 7 6
5 4 4 4 4 4 4 5 5 4 5 5 6 5 5 6 6 6 6 6 6 6 5 5 5 5 4 4 4 5 5 6 6 5 4 4 6 6 6 6 7 7 6
5 4 4 5 5 4 5 5 5 5 5 6 6 6 5 5 5 6 6 6 6 6 6 6 6 5 6 5 4 4 5 5 5 5 5 5 5 5 6 6 6 6 6
5 5 6 6 6 6 6 6 6 6 6 6 6 5 5 5 5 5 5 4 6 5 5 5 6 6 5 3 5 6 5 4 5 5 6 6 7 7 7 7 7 7 7
Wind_Direction
190 186 189 186 185 184 180 180 178 172 168 163 166 166 160 154 136 116 112 122 129 135 132 135 137 138 129 124 120 114 112 110 111 108 97 88 72 66 62 52 54 58 54
187 185 189 186 187 190 189 185 187 180 176 170 166 172 164 168 142 135 143 145 144 157 156 166 160 158 147 150 140 135 140 132 149 126 147 137 122 76 58 56 52 53 56
198 190 190 192 191 194 192 194 193 184 180 175 166 162 157 168 166 169 164 151 158 174 182 173 170 170 177 167 172 174 176 164 172 341 336 333 63 102 90 61 55 51 50
204 195 190 193 197 198 196 200 197 193 183 183 188 197 198 195 186 186 169 172 179 185 189 183 188 186 190 183 192 194 214 216 200 182 322 341 25 281 130 105 66 52 47
203 198 195 196 198 197 198 203 200 195 189 191 194 207 213 208 194 192 187 191 176 182 184 194 202 203 201 202 205 208 233 242 257 246 228 54 91 279 278 136 97 82 56
200 199 195 194 197 193 196 202 201 197 197 199 202 209 212 211 205 205 201 197 185 186 189 202 215 218 212 210 213 220 230 247 258 261 250 241 255 227 245 235 194 81 63
191 192 190 189 192 192 193 195 199 204 205 208 214 218 217 217 216 215 210 207 198 197 198 200 214 220 219 217 219 226 233 235 242 246 244 246 258 245 239 210 187 120 90
186 188 189 187 187 189 193 199 202 207 210 214 219 223 218 220 222 224 222 218 211 209 204 205 211 214 215 214 215 233 233 238 238 239 236 231 221 212 215 211 196 185 169
185 188 188 188 190 190 192 199 203 205 207 210 217 223 223 226 224 226 225 223 219 210 209 211 207 209 208 212 209 223 218 223 232 233 230 236 214 210 218 221 232 245 227
181 184 188 190 193 195 195 196 203 206 206 205 212 215 220 224 228 228 225 223 221 213 210 215 214 209 204 204 207 218 216 214 212 227 230 230 226 207 206 222 239 261 259
173 177 182 185 188 191 191 194 203 207 206 206 206 208 211 216 220 229 230 224 222 219 216 216 221 218 211 208 203 209 200 209 207 204 212 217 218 208 205 211 225 236 223
169 172 175 175 179 183 186 191 199 204 206 207 204 206 208 208 217 226 234 231 226 225 223 222 222 219 217 214 210 208 203 204 207 206 209 212 199 213 214 215 219 213 215
156 162 170 176 181 183 188 191 195 199 198 195 197 201 204 208 216 225 230 232 232 229 223 221 224 220 216 211 212 214 211 211 215 214 212 211 204 208 205 210 212 203 197
175 172 178 184 186 191 193 195 195 196 195 196 200 205 207 213 221 225 228 231 230 233 231 222 221 222 218 214 213 215 214 215 214 217 221 218 214 217 208 206 204 197 195
210 200 196 193 190 197 200 199 199 198 199 201 208 213 217 214 222 229 232 234 233 235 237 232 224 222 224 222 221 218 217 215 211 213 221 225 233 317 241 226 211 203 204
233 224 211 203 201 203 205 205 206 205 205 207 211 214 220 215 220 230 234 233 231 231 226 232 232 224 221 187 215 236 217 220 215 213 214 207 201 197 210 237 251 250 227
248 235 226 221 217 216 214 214 212 208 208 212 212 212 216 215 221 227 226 223 223 224 224 227 229 229 213 177 194 219 225 221 221 221 216 208 205 207 216 204 210 231 254
254 246 241 235 230 223 221 219 212 209 211 216 217 214 217 215 217 223 224 225 224 215 221 227 225 227 207 179 192 201 221 221 222 225 222 212 207 207 219 219 220 220 216
277 263 254 245 237 226 221 218 215 214 217 221 224 221 219 218 217 220 224 226 225 222 225 224 220 220 208 184 190 200 218 222 223 224 226 221 213 180 203 219 222 225 222
286 278 260 245 239 232 221 220 220 220 224 226 228 224 220 219 221 223 223 225 226 226 231 232 228 229 227 183 192 208 218 221 221 219 220 215 221 188 200 218 221 225 223
298 280 259 249 245 237 225 225 229 232 234 233 231 227 222 222 225 225 221 220 223 225 230 234 234 235 232 191 189 209 224 225 224 222 221 211 194 202 210 228 231 230 235
305 280 262 258 254 240 229 233 241 244 237 231 229 229 228 226 222 217 218 221 219 222 230 235 237 238 229 215 198 207 225 244 231 230 228 211 183 202 211 220 221 211 221
308 293 273 271 268 254 240 243 245 240 232 226 225 227 228 225 220 218 214 215 217 223 227 229 233 234 230 214 199 210 220 231 239 240 239 214 190 201 211 212 210 207 216
299 292 276 268 266 262 251 249 249 238 230 230 232 229 225 224 221 218 218 216 216 220 225 228 232 231 226 223 215 217 219 215 230 241 219 198 196 209 220 208 209 217 220
289 281 268 267 266 261 253 250 248 246 241 238 235 231 225 226 228 226 225 226 227 225 226 229 230 228 230 224 214 221 225 223 225 227 222 218 211 212 216 218 218 217 217
283 277 271 271 271 265 259 255 248 243 240 239 237 234 227 225 226 227 231 225 233 229 233 245 244 241 240 209 197 217 236 234 216 220 223 225 224 224 223 221 221 221 222
Height
1547 1548 1550 1551 1552 1553 1554 1555 1556 1557 1557 1558 1559 1559 1560 1560 1560 1560 1560 1560 1560 1560 1560 1560 1561 1561 1561 1561 1561 1561 1561 1560 1560 1561 1560 1560 1560 1559 1558 1558 1558 1557 1556
1545 1547 1548 1550 1551 1552 1553 1554 1555 1556 1557 1557 1559 1559 1560 1560 1560 1560 1560 1560 1560 1560 1560 1561 1561 1561 1561 1561 1561 1561 1561 1561 1561 1562 1561 1562 1562 1560 1559 1559 1558 1558 1557
1543 1545 1546 1548 1549 1551 1552 1553 1554 1555 1556 1557 1558 1558 1559 1559 1560 1560 1560 1560 1560 1560 1560 1560 1561 1561 1561 1561 1561 1561 1561 1561 1561 1562 1562 1562 1561 1562 1561 1560 1559 1558 1557
1540 1542 1544 1546 1547 1549 1550 1552 1553 1554 1555 1556 1557 1558 1558 1559 1559 1559 1559 1559 1559 1559 1559 1560 1560 1561 1561 1561 1561 1561 1561 1561 1561 1561 1561 1562 1561 1562 1561 1561 1560 1558 1557
1537 1539 1541 1543 1545 1547 1548 1550 1551 1553 1554 1555 1555 1556 1557 1558 1558 1558 1558 1558 1558 1558 1559 1559 1559 1560 1560 1560 1560 1560 1560 1560 1561 1561 1560 1560 1560 1561 1561 1561 1560 1559 1558
1534 1537 1539 1541 1543 1545 1546 1548 1549 1551 1552 1553 1554 1555 1556 1556 1556 1556 1557 1557 1557 1557 1558 1558 1558 1559 1559 1559 1559 1559 1559 1559 1559 1560 1560 1560 1560 1560 1560 1560 1560 1559 1558
1532 1534 1536 1538 1540 1542 1544 1546 1547 1549 1550 1551 1552 1553 1554 1555 1555 1555 1556 1556 1556 1556 1556 1557 1557 1557 1558 1558 1558 1558 1558 1558 1558 1558 1558 1559 1559 1559 1559 1559 1559 1559 1558
1530 1532 1534 1536 1538 1540 1542 1543 1545 1547 1548 1549 1550 1551 1552 1553 1554 1554 1554 1555 1555 1555 1555 1555 1556 1556 1556 1557 1557 1557 1557 1557 1557 1557 1557 1557 1557 1557 1558 1558 1558 1558 1558
1528 1530 1533 1534 1536 1538 1539 1541 1543 1544 1546 1547 1548 1549 1550 1551 1552 1552 1553 1553 1554 1554 1554 1554 1554 1554 1555 1555 1556 1556 1556 1556 1556 1556 1556 1556 1556 1556 1556 1557 1557 1558 1557
1527 1529 1531 1533 1534 1536 1538 1539 1541 1542 1544 1545 1546 1547 1548 1549 1550 1550 1551 1552 1552 1552 1552 1552 1553 1553 1553 1554 1554 1554 1554 1554 1554 1554 1554 1555 1555 1555 1555 1555 1555 1556 1557
1526 1528 1529 1531 1533 1534 1536 1537 1538 1540 1541 1542 1543 1545 1546 1546 1547 1548 1549 1549 1550 1550 1550 1551 1551 1551 1552 1552 1552 1552 1552 1553 1553 1553 1553 1553 1553 1553 1554 1554 1554 1554 1555
1526 1527 1528 1529 1531 1532 1534 1535 1536 1538 1539 1540 1541 1542 1543 1544 1545 1545 1546 1546 1547 1547 1548 1548 1549 1549 1550 1550 1551 1551 1551 1551 1551 1552 1552 1552 1552 1552 1552 1552 1552 1553 1553
1525 1526 1527 1528 1529 1531 1532 1533 1534 1535 1536 1537 1538 1539 1540 1541 1542 1543 1543 1544 1544 1545 1545 1545 1546 1547 1547 1548 1548 1549 1549 1549 1549 1550 1550 1550 1550 1550 1550 1550 1551 1551 1551
1524 1525 1525 1526 1527 1529 1530 1531 1532 1533 1534 1535 1536 1537 1538 1538 1539 1540 1540 1540 1541 1542 1542 1543 1543 1544 1545 1545 1546 1546 1547 1547 1547 1547 1547 1548 1548 1549 1549 1549 1549 1549 1549
1523 1523 1523 1524 1525 1526 1527 1528 1529 1530 1531 1532 1533 1534 1535 1535 1536 1536 1537 1537 1538 1538 1539 1540 1540 1541 1541 1542 1543 1544 1544 1544 1544 1545 1545 1545 1546 1546 1546 1547 1547 1547 1548
1521 1521 1522 1522 1523 1524 1525 1525 1526 1527 1528 1529 1530 1531 1532 1532 1533 1533 1533 1534 1534 1535 1535 1536 1537 1537 1538 1538 1539 1540 1541 1541 1542 1542 1542 1542 1543 1543 1544 1544 1544 1545 1546
1519 1519 1520 1520 1521 1522 1522 1523 1523 1524 1525 1526 1527 1528 1528 1529 1529 1530 1530 1530 1530 1531 1532 1533 1533 1534 1534 1535 1536 1536 1537 1538 1539 1539 1539 1539 1540 1540 1541 1541 1541 1542 1542
1517 1517 1517 1518 1518 1519 1519 1520 1521 1521 1522 1523 1524 1524 1525 1525 1526 1526 1526 1527 1527 1528 1528 1529 1529 1530 1530 1531 1532 1533 1534 1535 1535 1536 1536 1536 1537 1537 1538 1538 1538 1539 1539
1514 1515 1515 1515 1516 1516 1516 1517 1518 1518 1518 1519 1520 1520 1521 1521 1522 1522 1523 1524 1524 1525 1525 1526 1526 1526 1527 1527 1528 1529 1531 1531 1532 1532 1532 1533 1533 1533 1534 1535 1535 1536 1536
1512 1512 1512 1512 1512 1513 1513 1514 1514 1514 1515 1515 1516 1517 1517 1518 1518 1519 1520 1520 1521 1521 1522 1522 1522 1523 1523 1524 1524 1526 1527 1528 1528 1529 1529 1529 1529 1530 1530 1531 1532 1532 1533
1509 1509 1509 1509 1509 1509 1510 1510 1510 1510 1511 1512 1512 1513 1513 1514 1514 1515 1516 1516 1517 1517 1518 1518 1519 1519 1519 1520 1521 1522 1523 1524 1524 1525 1525 1525 1525 1526 1526 1527 1528 1529 1529
1506 1506 1505 1505 1505 1505 1506 1506 1506 1506 1507 1507 1508 1508 1509 1509 1510 1511 1511 1512 1513 1513 1514 1514 1515 1515 1515 1516 1516 1517 1519 1520 1520 1521 1521 1522 1522 1522 1522 1523 1524 1524 1525
1503 1503 1502 1502 1502 1502 1502 1502 1502 1502 1502 1503 1503 1504 1504 1505 1505 1506 1507 1508 1508 1509 1509 1510 1510 1510 1511 1512 1512 1513 1514 1515 1516 1517 1517 1518 1518 1518 1519 1519 1519 1520 1520
1500 1500 1499 1499 1498 1498 1498 1498 1498 1498 1498 1498 1499 1500 1500 1500 1501 1502 1502 1503 1504 1504 1505 1505 1505 1506 1507 1507 1508 1508 1509 1510 1511 1512 1512 1513 1513 1514 1514 1514 1515 1515 1515
1497 1496 1496 1495 1495 1494 1494 1494 1494 1494 1494 1494 1495 1495 1495 1495 1496 1496 1497 1498 1499 1500 1500 1501 1501 1501 1502 1502 1503 1504 1505 1505 1506 1507 1508 1508 1508 1508 1509 1509 1509 1510 1510
1493 1493 1492 1491 1491 1490 1489 1489 1489 1490 1490 1490 1490 1490 1491 1491 1491 1491 1492 1492 1493 1494 1495 1496 1497 1497 1498 1498 1499 1500 1500 1501 1501 1502 1502 1502 1503 1503 1503 1503 1504 1504 1505